Regional Weather Roundup
Issued by NWS

Home | Current Version | Previous Version | Graphics & Text | Print | Product List | Glossary On
Versions: 1 2 3 4 5 6 7 8 9 10 11 12 13 14 15 16 17 18 19 20 21 22 23 24 25 26 27 28 29 30 31 32 33 34 35 36 37 38 39 40 41 42 43 44 45 46 47 48 49 50
000
ASUS45 KPSR 010200
RWRAZ

PRELIMINARY ARIZONA REGIONAL HOURLY WEATHER ROUNDUP
NATIONAL WEATHER SERVICE PHOENIX AZ
700 PM MST TUE SEP 30 2014

NOTE: FAIR INDICATES FEW OR NO CLOUDS BELOW 12,000 FEET WITH NO
SIGNIFICANT WEATHER AND/OR OBSTRUCTIONS TO VISIBILITY.

AZZ001>003-036-010300-
NORTHWEST ARIZONA

CITY           SKY/WX    TMP DP  RH WIND       PRES   REMARKS
KINGMAN        CLEAR     69  40  34 S8        29.86S
$$

AZZ004>008-015-016-018-010300-
NORTH CENTRAL ARIZONA

CITY           SKY/WX    TMP DP  RH WIND       PRES   REMARKS
GRAND CANYON   CLEAR     52  41  66 CALM      30.02S
PRESCOTT       CLEAR     64  38  38 SW9       29.96R
FLAGSTAFF      CLEAR     55  35  47 W7        30.06S
PAYSON         CLEAR     64  39  39 CALM      29.99S
$$

AZZ009>014-017-010300-
NORTHEAST ARIZONA

CITY           SKY/WX    TMP DP  RH WIND       PRES   REMARKS
WINSLOW        NOT AVBL
SAINT JOHNS    CLEAR     63  34  33 N6        29.97S
WINDOW ROCK    CLEAR     55  35  47 S3        30.03
SHOW LOW       CLEAR     57  36  44 S8        30.05R
$$

AZZ023-010300-
GREATER PHOENIX AREA

CITY           SKY/WX    TMP DP  RH WIND       PRES   REMARKS
PHOENIX        CLEAR     83  45  26 S3        29.74S
GLENDALE       CLEAR     81  48  32 S3        29.76S
DEER VALLEY    CLEAR     81  42  25 CALM      29.76S
SCOTTSDALE     CLEAR     82  41  23 S3        29.78S
MESA-FALCON    CLEAR     82  36  18 CALM      29.76S
MESA-GATEWAY   CLEAR     79  46  31 SW3       29.79S
CHANDLER       CLEAR     81  46  30 SW6       29.76F
$$

AZZ027-028-010300-
SOUTHWEST MARICOPA COUNTY AND PINAL COUNTY

CITY           SKY/WX    TMP DP  RH WIND       PRES   REMARKS
CASA GRANDE    CLEAR     77  39  25 CALM      29.78S
$$

AZZ503-504-507>509-010300-
SOUTHEAST ARIZONA

CITY           SKY/WX    TMP DP  RH WIND       PRES   REMARKS
TUCSON         CLEAR     80  35  19 N7        29.86R
DAVIS-MONTHAN  CLEAR     77  37  23 NW6       29.84S
RYAN FIELD       N/A     79  36  21 NW6       29.84S
NOGALES        CLEAR     65  46  50 E3        29.93R
SIERRA VISTA   CLEAR     68  39  34 SW10      29.97R
SAFFORD        CLEAR     73  33  23 NW6       29.83S
$$

AZZ020-021-025-026-031-010300-
SOUTHWEST ARIZONA

CITY           SKY/WX    TMP DP  RH WIND       PRES   REMARKS
YUMA           CLEAR     88  39  17 S6        29.68F
$$

CAZ031-033-041-043-047-048-061-010300-
SOUTHERN CALIFORNIA

CITY           SKY/WX    TMP DP  RH WIND       PRES   REMARKS
DOWNTOWN L.A.  CLEAR     73  61  65 VRB3      29.76R
L.A. AIRPORT   PTCLDY    69  63  81 W9        29.77S
SAN DIEGO      PTCLDY    74  63  68 VRB3      29.79S
BURBANK        CLEAR     77  51  40 S6        29.76S
ONTARIO        CLEAR     80  53  39 SW10      29.77R
RIVERSIDE      CLEAR     80  51  36 W7        29.77R
PALM SPRINGS   CLEAR     89  42  19 E8        29.69S
EL CENTRO NAS  CLEAR     86  43  22 SE6       29.66S
IMPERIAL       CLEAR     89  44  20 SE6       29.66S
BLYTHE         CLEAR     86  34  15 SE5       29.69S
$$

NVZ020-UTZ003-010300-
SOUTHERN NEVADA-UTAH

CITY           SKY/WX    TMP DP  RH WIND       PRES   REMARKS
LAS VEGAS      NOT AVBL
SALT LAKE CITY LGT RAIN  57  44  62 N6        29.93R
$$

NMZ009-TXZ055-010300-
NEW MEXICO-WEST TEXAS

CITY           SKY/WX    TMP DP  RH WIND       PRES   REMARKS
ALBUQUERQUE    CLEAR     69  31  24 N10       29.93R
EL PASO        CLEAR     81  47  30 NW8       29.85R
$$


........................KEY........................
SKY/WX - SKY CONDITION/WEATHER
TMP    - TEMPERATURE IN FAHRENHEIT
DP     - DEW POINT IN FAHRENHEIT
RH     - RELATIVE HUMIDITY IN PERCENT
WIND   - DIRECTION AND SPEED IN MILES PER HOUR (MPH)
VRB    - VARIABLE WIND DIRECTION
PRES   - MEAN SEA LEVEL PRESSURE IN INCHES OF MERCURY
         F - FALLING PRESSURE   R - RISING PRESSURE
         S - STEADY PRESSURE
VSB    - VISIBILITY IN MILES
HX     - HEAT INDEX IN FAHRENHEIT
WCI    - WIND CHILL INDEX IN FAHRENHEIT
TC     - TEMPERATURE IN CELSIUS WHICH IS ALSO KNOWN AS
         TEMPERATURE IN CENTIGRADE
AFB    - AIR FORCE BASE
         LUKE AFB IS LUKE AIR FORCE BASE
         DAVIS-MONTHAN IS DAVIS-MONTHAN AIR FORCE BASE
NAS    - NAVAL AIR STATION
         EL CENTRO NAS IS EL CENTRO NAVAL AIR STATION
N/A    - NOT AVAILABLE


USA.gov is the U.S. government's official web portal to all federal, state and local government web resources and services.